Simultaneous Nadir Overpasses (SNOs) Predictions

Prediction of SNOs between AURA and NPP Satellite Orbit:

Table of predicted SNOs for the next 14.0 days since TLE Epoch: 2/27/2015
Index Date (AURA) Time (AURA) Lat,Lon (AURA) SZA (AURA ) Date (NPP) Time (NPP) Lat,Lon (NPP) SZA (NPP ) Distance(km) Time Diff (sec)
1 02/28/2015 15:52:02 -78.31, 12.25 77.68 02/28/2015 15:51:28 -78.30, 12.15 77.64 2.36 34
2 02/28/2015 16:41:16 78.81,-177.46 101.65 02/28/2015 16:41:59 78.80,-177.53 101.63 1.72 43
3 03/03/2015 08:08:27 -78.57, 129.49 79.06 03/03/2015 08:08:13 -78.57, 129.51 79.05 0.46 14
4 03/03/2015 08:57:42 79.02, -60.35 100.34 03/03/2015 08:58:45 79.02, -60.30 100.28 1.31 63
5 03/05/2015 23:35:41 78.15, 75.59 100.47 03/05/2015 23:34:31 78.15, 75.56 100.53 0.56 70
6 03/06/2015 00:24:54 -78.76,-113.63 80.34 03/06/2015 00:25:01 -78.76,-113.56 80.36 1.72 7
7 03/08/2015 15:52:07 78.34,-167.57 99.17 03/08/2015 15:51:19 78.34,-167.61 99.21 0.98 48
8 03/08/2015 16:41:21 -78.90, 3.08 81.59 03/08/2015 16:41:50 -78.91, 3.15 81.63 1.42 29
9 03/11/2015 08:08:34 78.46, -51.10 97.95 03/11/2015 08:08:09 78.45, -51.23 98.00 3.00 25
10 03/11/2015 08:57:49 -78.97, 119.38 82.75 03/11/2015 08:58:41 -78.97, 119.36 82.79 0.48 52




NCC Satellite Simultaneous Nadir Overpasses (SNOs) Prediction Service
